| time (UTC) | temp C | wind direction | speed KPH | gust KPH | rain 1hr cm | rain 24hr cm | rain mn cm | humidity % | barometer mb |
| 20260507222503 | 7 | 321 | 0.0 | 3.2 | 0.00 | 0.00 | 0.00 | 93 | 1014.7 |
| 20260507222004 | 7 | 325 | 0.0 | 3.2 | 0.00 | 0.00 | 0.00 | 93 | 1014.7 |
| 20260507221717 | 7 | 328 | 0.0 | 3.2 | 0.00 | 0.00 | 0.00 | 93 | 1014.7 |
| 20260507221218 | 7 | 346 | 0.0 | 3.2 | 0.00 | 0.00 | 0.00 | 93 | 1014.7 |
| 20260507220717 | 7 | 339 | 0.0 | 3.2 | 0.00 | 0.00 | 0.00 | 92 | 1014.7 |
| 20260507220218 | 7 | 327 | 0.0 | 3.2 | 0.00 | 0.00 | 0.00 | 92 | 1014.7 |
| 20260507215503 | 7 | 347 | 0.0 | 3.2 | 0.00 | 0.00 | 0.00 | 92 | 1014.7 |
| 20260507215003 | 7 | 336 | 0.0 | 3.2 | 0.00 | 0.00 | 0.00 | 92 | 1014.5 |
| 20260507214716 | 7 | 330 | 0.0 | 3.2 | 0.00 | 0.00 | 0.00 | 92 | 1014.5 |
| 20260507214003 | 7 | 354 | 0.0 | 3.2 | 0.00 | 0.00 | 0.00 | 91 | 1014.5 |
| 20260507213503 | 7 | 352 | 0.0 | 3.2 | 0.00 | 0.00 | 0.00 | 91 | 1014.4 |
| 20260507213003 | 7 | 343 | 0.0 | 1.6 | 0.00 | 0.00 | 0.00 | 90 | 1014.5 |
| 20260507212503 | 7 | 337 | 0.0 | 1.6 | 0.00 | 0.00 | 0.00 | 89 | 1014.5 |
| 20260507212004 | 7 | 306 | 0.0 | 3.2 | 0.00 | 0.00 | 0.00 | 88 | 1014.4 |
| 20260507211503 | 7 | 310 | 0.0 | 3.2 | 0.00 | 0.00 | 0.00 | 88 | 1014.4 |
| 20260507211004 | 8 | 322 | 0.0 | 3.2 | 0.00 | 0.00 | 0.00 | 89 | 1014.5 |
| 20260507210503 | 8 | 325 | 0.0 | 1.6 | 0.00 | 0.00 | 0.00 | 88 | 1014.3 |
| 20260507210004 | 8 | 323 | 1.6 | 3.2 | 0.00 | 0.00 | 0.00 | 88 | 1014.5 |
| 20260507205504 | 8 | 326 | 1.6 | 3.2 | 0.00 | 0.00 | 0.00 | 87 | 1014.3 |
| 20260507205003 | 8 | 332 | 1.6 | 3.2 | 0.00 | 0.00 | 0.00 | 87 | 1014.3 |
| 20260507204503 | 8 | 321 | 0.0 | 3.2 | 0.00 | 0.00 | 0.00 | 86 | 1014.2 |
| 20260507204003 | 8 | 307 | 0.0 | 3.2 | 0.00 | 0.00 | 0.00 | 85 | 1014.1 |
| 20260507203503 | 8 | 322 | 0.0 | 3.2 | 0.00 | 0.00 | 0.00 | 85 | 1014.1 |
| 20260507203217 | 8 | 332 | 0.0 | 3.2 | 0.00 | 0.00 | 0.00 | 85 | 1014.0 |
| 20260507202718 | 9 | 342 | 0.0 | 3.2 | 0.00 | 0.00 | 0.00 | 84 | 1014.0 |
| 20260507202003 | 9 | 324 | 0.0 | 3.2 | 0.00 | 0.00 | 0.00 | 83 | 1014.1 |
| 20260507201503 | 10 | 314 | 0.0 | 3.2 | 0.00 | 0.00 | 0.00 | 83 | 1013.9 |
| 20260507201217 | 10 | 305 | 0.0 | 3.2 | 0.00 | 0.00 | 0.00 | 82 | 1013.8 |
| 20260507200504 | 10 | 340 | 0.0 | 1.6 | 0.00 | 0.00 | 0.00 | 82 | 1013.9 |
| 20260507200004 | 10 | 312 | 0.0 | 1.6 | 0.00 | 0.00 | 0.00 | 81 | 1013.7 |
| 20260507195504 | 10 | 328 | 0.0 | 1.6 | 0.00 | 0.00 | 0.00 | 81 | 1013.9 |
| 20260507195217 | 10 | 332 | 0.0 | 1.6 | 0.00 | 0.00 | 0.00 | 81 | 1013.9 |
| 20260507194503 | 10 | 343 | 0.0 | 3.2 | 0.00 | 0.00 | 0.00 | 80 | 1013.8 |
| 20260507194004 | 10 | 350 | 0.0 | 3.2 | 0.00 | 0.00 | 0.00 | 80 | 1013.6 |
| 20260507193503 | 10 | 353 | 0.0 | 1.6 | 0.00 | 0.00 | 0.00 | 80 | 1013.5 |
| 20260507193004 | 10 | 324 | 0.0 | 1.6 | 0.00 | 0.00 | 0.00 | 80 | 1013.6 |
| 20260507192503 | 10 | 324 | 0.0 | 1.6 | 0.00 | 0.00 | 0.00 | 79 | 1013.4 |
| 20260507192003 | 10 | 345 | 0.0 | 1.6 | 0.00 | 0.00 | 0.00 | 79 | 1013.7 |
| 20260507191718 | 10 | 356 | 0.0 | 1.6 | 0.00 | 0.00 | 0.00 | 79 | 1013.7 |
| 20260507191003 | 10 | 9 | 0.0 | 1.6 | 0.00 | 0.00 | 0.00 | 79 | 1013.4 |
| 20260507190718 | 10 | 359 | 0.0 | 1.6 | 0.00 | 0.00 | 0.00 | 78 | 1013.6 |
| 20260507190004 | 11 | 360 | 0.0 | 1.6 | 0.00 | 0.00 | 0.00 | 78 | 1013.6 |
| 20260507185503 | 11 | 5 | 0.0 | 3.2 | 0.00 | 0.00 | 0.00 | 78 | 1013.6 |
| 20260507185003 | 10 | 9 | 0.0 | 3.2 | 0.00 | 0.00 | 0.00 | 78 | 1013.4 |
| 20260507184503 | 11 | 17 | 0.0 | 1.6 | 0.00 | 0.00 | 0.00 | 78 | 1013.5 |
| 20260507184003 | 11 | 24 | 0.0 | 1.6 | 0.00 | 0.00 | 0.00 | 77 | 1013.4 |
| 20260507183503 | 11 | 18 | 0.0 | 3.2 | 0.00 | 0.00 | 0.00 | 77 | 1013.3 |
| 20260507183004 | 11 | 15 | 0.0 | 3.2 | 0.00 | 0.00 | 0.00 | 77 | 1013.5 |
| 20260507182503 | 11 | 3 | 0.0 | 3.2 | 0.00 | 0.00 | 0.00 | 76 | 1013.4 |
| 20260507182003 | 12 | 16 | 1.6 | 4.8 | 0.00 | 0.00 | 0.00 | 75 | 1013.4 |
| 20260507181503 | 12 | 26 | 1.6 | 4.8 | 0.00 | 0.00 | 0.00 | 70 | 1013.3 |
| 20260507181003 | 11 | 19 | 1.6 | 6.4 | 0.00 | 0.00 | 0.00 | 72 | 1013.4 |
| 20260507180717 | 11 | 8 | 1.6 | 6.4 | 0.00 | 0.00 | 0.00 | 74 | 1013.4 |
| 20260507180003 | 11 | 360 | 1.6 | 3.2 | 0.00 | 0.00 | 0.00 | 77 | 1013.3 |
| 20260507175503 | 11 | 4 | 0.0 | 3.2 | 0.00 | 0.00 | 0.00 | 77 | 1013.4 |
| 20260507175003 | 11 | 4 | 0.0 | 3.2 | 0.00 | 0.00 | 0.00 | 77 | 1013.3 |
| 20260507174503 | 11 | 5 | 0.0 | 1.6 | 0.00 | 0.00 | 0.00 | 77 | 1013.5 |
| 20260507174003 | 11 | 357 | 0.0 | 1.6 | 0.00 | 0.00 | 0.00 | 76 | 1013.4 |
| 20260507173503 | 11 | 337 | 0.0 | 3.2 | 0.00 | 0.00 | 0.00 | 73 | 1013.2 |
| 20260507173004 | 12 | 333 | 1.6 | 4.8 | 0.00 | 0.00 | 0.00 | 72 | 1013.3 |
| 20260507172504 | 12 | 120 | 1.6 | 4.8 | 0.00 | 0.00 | 0.00 | 70 | 1013.3 |
| 20260507172003 | 12 | 97 | 1.6 | 4.8 | 0.00 | 0.00 | 0.00 | 71 | 1013.3 |
| 20260507171503 | 12 | 66 | 1.6 | 6.4 | 0.00 | 0.00 | 0.00 | 72 | 1013.3 |
| 20260507171003 | 12 | 65 | 3.2 | 6.4 | 0.00 | 0.00 | 0.00 | 72 | 1013.4 |
| 20260507170503 | 12 | 58 | 3.2 | 8.0 | 0.00 | 0.00 | 0.00 | 73 | 1013.3 |
| 20260507170218 | 12 | 64 | 3.2 | 8.0 | 0.00 | 0.00 | 0.00 | 72 | 1013.6 |
| 20260507165504 | 12 | 76 | 3.2 | 8.0 | 0.00 | 0.00 | 0.00 | 73 | 1013.3 |
| 20260507165003 | 12 | 88 | 3.2 | 6.4 | 0.00 | 0.00 | 0.00 | 74 | 1013.4 |
| 20260507164503 | 12 | 83 | 3.2 | 8.0 | 0.00 | 0.00 | 0.00 | 73 | 1013.3 |
| 20260507164003 | 12 | 90 | 3.2 | 8.0 | 0.00 | 0.00 | 0.00 | 77 | 1013.3 |
| 20260507163503 | 12 | 96 | 4.8 | 9.7 | 0.00 | 0.00 | 0.00 | 77 | 1013.4 |
| 20260507163003 | 12 | 90 | 4.8 | 9.7 | 0.00 | 0.00 | 0.00 | 76 | 1013.3 |
| 20260507162503 | 12 | 73 | 4.8 | 9.7 | 0.00 | 0.00 | 0.00 | 72 | 1013.2 |
| 20260507162003 | 12 | 75 | 3.2 | 9.7 | 0.00 | 0.00 | 0.00 | 73 | 1013.5 |
| 20260507161503 | 12 | 111 | 3.2 | 8.0 | 0.00 | 0.00 | 0.00 | 74 | 1013.5 |
| 20260507161003 | 12 | 118 | 3.2 | 8.0 | 0.00 | 0.00 | 0.00 | 74 | 1013.3 |
| 20260507160503 | 12 | 99 | 3.2 | 8.0 | 0.00 | 0.00 | 0.00 | 73 | 1013.3 |
| 20260507160217 | 12 | 94 | 3.2 | 8.0 | 0.00 | 0.00 | 0.00 | 74 | 1013.2 |
| 20260507155504 | 12 | 141 | 4.8 | 12.9 | 0.00 | 0.00 | 0.00 | 74 | 1013.4 |
| 20260507155003 | 12 | 163 | 4.8 | 12.9 | 0.00 | 0.00 | 0.00 | 75 | 1013.4 |
| 20260507154718 | 12 | 128 | 4.8 | 9.7 | 0.00 | 0.00 | 0.00 | 74 | 1013.3 |
| 20260507154004 | 12 | 100 | 3.2 | 11.3 | 0.00 | 0.00 | 0.00 | 73 | 1013.5 |
| 20260507153504 | 12 | 144 | 3.2 | 11.3 | 0.00 | 0.00 | 0.00 | 73 | 1013.4 |
| 20260507153217 | 12 | 142 | 3.2 | 11.3 | 0.00 | 0.00 | 0.00 | 73 | 1013.5 |
| 20260507152504 | 12 | 116 | 3.2 | 8.0 | 0.00 | 0.00 | 0.00 | 73 | 1013.5 |
| 20260507152003 | 12 | 110 | 3.2 | 8.0 | 0.00 | 0.00 | 0.00 | 74 | 1013.6 |
| 20260507151503 | 12 | 115 | 3.2 | 9.7 | 0.00 | 0.00 | 0.00 | 75 | 1013.3 |
| 20260507151217 | 12 | 111 | 3.2 | 9.7 | 0.00 | 0.00 | 0.00 | 75 | 1013.5 |
| 20260507150503 | 12 | 120 | 1.6 | 8.0 | 0.00 | 0.00 | 0.00 | 75 | 1013.4 |
| 20260507150003 | 12 | 91 | 3.2 | 8.0 | 0.00 | 0.00 | 0.00 | 75 | 1013.4 |
| 20260507145503 | 12 | 87 | 3.2 | 8.0 | 0.00 | 0.00 | 0.00 | 76 | 1013.4 |
| 20260507145003 | 12 | 97 | 3.2 | 11.3 | 0.00 | 0.00 | 0.00 | 75 | 1013.5 |
| 20260507144503 | 12 | 79 | 3.2 | 11.3 | 0.00 | 0.00 | 0.00 | 76 | 1013.3 |
| 20260507144004 | 12 | 58 | 3.2 | 9.7 | 0.00 | 0.00 | 0.00 | 76 | 1013.6 |
| 20260507143503 | 12 | 17 | 3.2 | 6.4 | 0.00 | 0.00 | 0.00 | 77 | 1013.5 |
| 20260507143217 | 12 | 348 | 1.6 | 6.4 | 0.00 | 0.00 | 0.00 | 77 | 1013.7 |
| 20260507142503 | 12 | 351 | 1.6 | 6.4 | 0.00 | 0.00 | 0.00 | 78 | 1013.5 |
| 20260507142003 | 12 | 315 | 1.6 | 6.4 | 0.00 | 0.00 | 0.00 | 76 | 1013.5 |
| 20260507141503 | 12 | 252 | 0.0 | 3.2 | 0.00 | 0.00 | 0.00 | 76 | 1013.5 |
| 20260507141004 | 12 | 242 | 1.6 | 4.8 | 0.00 | 0.00 | 0.00 | 74 | 1013.6 |
| 20260507140503 | 12 | 59 | 1.6 | 6.4 | 0.00 | 0.00 | 0.00 | 71 | 1013.5 |
| 20260507140217 | 12 | 82 | 3.2 | 6.4 | 0.00 | 0.00 | 0.00 | 70 | 1013.6 |
| 20260507135718 | 13 | 165 | 3.2 | 8.0 | 0.00 | 0.00 | 0.00 | 69 | 1013.5 |
| 20260507135003 | 13 | 170 | 3.2 | 8.0 | 0.00 | 0.00 | 0.00 | 66 | 1013.4 |
| 20260507134503 | 13 | 142 | 3.2 | 6.4 | 0.00 | 0.00 | 0.00 | 67 | 1013.5 |
| 20260507134004 | 13 | 84 | 3.2 | 6.4 | 0.00 | 0.00 | 0.00 | 69 | 1013.4 |
| 20260507133503 | 13 | 80 | 3.2 | 8.0 | 0.00 | 0.00 | 0.00 | 69 | 1013.6 |
| 20260507133003 | 13 | 90 | 3.2 | 8.0 | 0.00 | 0.00 | 0.00 | 68 | 1013.5 |
| 20260507132504 | 13 | 95 | 3.2 | 8.0 | 0.00 | 0.00 | 0.00 | 67 | 1013.6 |
| 20260507132003 | 13 | 118 | 3.2 | 8.0 | 0.00 | 0.00 | 0.00 | 68 | 1013.7 |
| 20260507131503 | 12 | 192 | 1.6 | 6.4 | 0.00 | 0.00 | 0.00 | 68 | 1013.4 |
| 20260507131003 | 12 | 261 | 3.2 | 8.0 | 0.00 | 0.00 | 0.00 | 68 | 1013.4 |
| 20260507130503 | 12 | 264 | 3.2 | 9.7 | 0.00 | 0.00 | 0.00 | 68 | 1013.6 |
| 20260507130003 | 12 | 71 | 4.8 | 9.7 | 0.00 | 0.00 | 0.00 | 68 | 1013.4 |
| 20260507125503 | 13 | 89 | 3.2 | 9.7 | 0.00 | 0.00 | 0.00 | 66 | 1013.3 |
| 20260507125004 | 13 | 140 | 3.2 | 6.4 | 0.00 | 0.00 | 0.00 | 66 | 1013.4 |
| 20260507124717 | 13 | 158 | 3.2 | 6.4 | 0.00 | 0.00 | 0.00 | 66 | 1013.6 |
| 20260507124003 | 13 | 83 | 1.6 | 6.4 | 0.00 | 0.00 | 0.00 | 65 | 1013.4 |
| 20260507123717 | 13 | 42 | 1.6 | 3.2 | 0.00 | 0.00 | 0.00 | 68 | 1013.2 |
| 20260507123003 | 12 | 32 | 1.6 | 6.4 | 0.00 | 0.00 | 0.00 | 67 | 1013.2 |
| 20260507122503 | 13 | 45 | 1.6 | 6.4 | 0.00 | 0.00 | 0.00 | 67 | 1013.2 |
| 20260507122004 | 13 | 65 | 1.6 | 6.4 | 0.00 | 0.00 | 0.00 | 66 | 1013.3 |
| 20260507121503 | 13 | 90 | 1.6 | 6.4 | 0.00 | 0.00 | 0.00 | 67 | 1013.2 |
| 20260507121003 | 13 | 135 | 1.6 | 4.8 | 0.00 | 0.00 | 0.00 | 66 | 1013.2 |
| 20260507120503 | 13 | 81 | 1.6 | 6.4 | 0.00 | 0.00 | 0.00 | 66 | 1013.3 |
| 20260507120004 | 13 | 64 | 1.6 | 6.4 | 0.00 | 0.00 | 0.00 | 65 | 1013.3 |
| 20260507115503 | 13 | 312 | 1.6 | 8.0 | 0.00 | 0.00 | 0.00 | 62 | 1013.0 |
| 20260507115004 | 13 | 271 | 1.6 | 8.0 | 0.00 | 0.00 | 0.00 | 58 | 1013.3 |
| 20260507114717 | 13 | 296 | 1.6 | 8.0 | 0.00 | 0.00 | 0.00 | 59 | 1013.4 |
| 20260507114003 | 13 | 352 | 3.2 | 9.7 | 0.00 | 0.00 | 0.00 | 56 | 1013.2 |
| 20260507113503 | 14 | 16 | 3.2 | 9.7 | 0.00 | 0.00 | 0.00 | 53 | 1013.1 |
| 20260507113004 | 14 | 358 | 1.6 | 6.4 | 0.00 | 0.00 | 0.00 | 56 | 1013.3 |
| 20260507112503 | 14 | 327 | 1.6 | 6.4 | 0.00 | 0.00 | 0.00 | 57 | 1013.2 |
| 20260507112003 | 14 | 260 | 3.2 | 9.7 | 0.00 | 0.00 | 0.00 | 59 | 1013.0 |
| 20260507111504 | 15 | 247 | 3.2 | 9.7 | 0.00 | 0.00 | 0.00 | 57 | 1013.2 |
| 20260507111217 | 15 | 255 | 3.2 | 8.0 | 0.00 | 0.00 | 0.00 | 53 | 1013.0 |
| 20260507110503 | 15 | 326 | 3.2 | 8.0 | 0.00 | 0.00 | 0.00 | 56 | 1013.3 |
| 20260507110003 | 15 | 310 | 3.2 | 6.4 | 0.00 | 0.00 | 0.00 | 56 | 1013.1 |
| 20260507105503 | 15 | 326 | 3.2 | 6.4 | 0.00 | 0.00 | 0.00 | 54 | 1013.6 |
| 20260507105217 | 15 | 334 | 1.6 | 6.4 | 0.00 | 0.00 | 0.00 | 54 | 1013.4 |
| 20260507104504 | 14 | 283 | 1.6 | 6.4 | 0.00 | 0.00 | 0.00 | 54 | 1013.4 |
| 20260507104217 | 14 | 268 | 3.2 | 6.4 | 0.00 | 0.00 | 0.00 | 55 | 1013.5 |
| 20260507103503 | 13 | 251 | 1.6 | 6.4 | 0.00 | 0.00 | 0.00 | 60 | 1013.4 |
| 20260507103003 | 13 | 303 | 1.6 | 8.0 | 0.00 | 0.00 | 0.00 | 60 | 1013.5 |
| 20260507102503 | 13 | 297 | 1.6 | 8.0 | 0.00 | 0.00 | 0.00 | 64 | 1013.5 |
| 20260507102003 | 13 | 264 | 3.2 | 6.4 | 0.00 | 0.00 | 0.00 | 66 | 1013.6 |
| 20260507101503 | 13 | 246 | 3.2 | 6.4 | 0.00 | 0.00 | 0.00 | 65 | 1013.7 |
| 20260507101003 | 13 | 233 | 1.6 | 4.8 | 0.00 | 0.00 | 0.00 | 62 | 1013.5 |
| 20260507100718 | 13 | 239 | 1.6 | 4.8 | 0.00 | 0.00 | 0.00 | 65 | 1013.6 |
| 20260507100003 | 12 | 239 | 1.6 | 6.4 | 0.00 | 0.00 | 0.00 | 67 | 1013.7 |
| 20260507095504 | 12 | 242 | 1.6 | 6.4 | 0.00 | 0.00 | 0.00 | 68 | 1013.8 |
| 20260507095004 | 12 | 262 | 1.6 | 6.4 | 0.00 | 0.00 | 0.00 | 70 | 1013.9 |
| 20260507094503 | 12 | 237 | 1.6 | 8.0 | 0.00 | 0.00 | 0.00 | 68 | 1013.9 |
| 20260507094003 | 11 | 243 | 1.6 | 8.0 | 0.00 | 0.00 | 0.00 | 70 | 1013.8 |
| 20260507093503 | 11 | 286 | 1.6 | 4.8 | 0.00 | 0.00 | 0.00 | 71 | 1013.9 |
| 20260507093003 | 11 | 263 | 1.6 | 4.8 | 0.00 | 0.00 | 0.00 | 70 | 1014.1 |
| 20260507092503 | 11 | 256 | 1.6 | 4.8 | 0.00 | 0.00 | 0.00 | 69 | 1014.0 |
| 20260507092217 | 11 | 264 | 1.6 | 4.8 | 0.00 | 0.00 | 0.00 | 70 | 1013.9 |
| 20260507091503 | 11 | 273 | 1.6 | 4.8 | 0.00 | 0.00 | 0.00 | 71 | 1013.9 |
| 20260507091217 | 11 | 275 | 1.6 | 4.8 | 0.00 | 0.00 | 0.00 | 72 | 1014.0 |
| 20260507090503 | 11 | 304 | 1.6 | 3.2 | 0.00 | 0.00 | 0.00 | 73 | 1014.0 |
| 20260507090004 | 11 | 324 | 0.0 | 3.2 | 0.00 | 0.00 | 0.00 | 73 | 1013.9 |
| 20260507085503 | 11 | 306 | 1.6 | 3.2 | 0.00 | 0.00 | 0.00 | 72 | 1013.8 |
| 20260507085003 | 11 | 298 | 1.6 | 3.2 | 0.00 | 0.00 | 0.00 | 73 | 1013.9 |
| 20260507084503 | 11 | 296 | 1.6 | 3.2 | 0.00 | 0.00 | 0.00 | 73 | 1014.0 |
| 20260507084003 | 11 | 291 | 1.6 | 4.8 | 0.00 | 0.00 | 0.00 | 73 | 1013.9 |
| 20260507083504 | 11 | 275 | 1.6 | 4.8 | 0.00 | 0.00 | 0.00 | 72 | 1013.9 |
| 20260507083003 | 11 | 296 | 0.0 | 4.8 | 0.00 | 0.00 | 0.00 | 71 | 1013.8 |
| 20260507082503 | 11 | 308 | 0.0 | 3.2 | 0.00 | 0.00 | 0.00 | 75 | 1013.8 |
| 20260507082003 | 11 | 310 | 1.6 | 3.2 | 0.00 | 0.00 | 0.00 | 75 | 1014.0 |
| 20260507081717 | 10 | 298 | 1.6 | 4.8 | 0.00 | 0.00 | 0.00 | 76 | 1013.6 |
| 20260507081003 | 10 | 292 | 1.6 | 4.8 | 0.00 | 0.00 | 0.00 | 75 | 1013.6 |
| 20260507080503 | 10 | 326 | 0.0 | 1.6 | 0.00 | 0.00 | 0.00 | 78 | 1013.8 |
| 20260507080004 | 10 | 318 | 0.0 | 3.2 | 0.00 | 0.00 | 0.00 | 77 | 1013.8 |
| 20260507075503 | 10 | 320 | 0.0 | 3.2 | 0.00 | 0.00 | 0.00 | 77 | 1013.9 |
| 20260507075003 | 10 | 322 | 0.0 | 3.2 | 0.00 | 0.00 | 0.00 | 77 | 1013.9 |
| 20260507074717 | 10 | 312 | 1.6 | 3.2 | 0.00 | 0.00 | 0.00 | 77 | 1013.7 |
| 20260507074003 | 10 | 308 | 0.0 | 3.2 | 0.00 | 0.00 | 0.00 | 78 | 1013.8 |
| 20260507073503 | 10 | 318 | 1.6 | 3.2 | 0.00 | 0.00 | 0.00 | 78 | 1013.7 |
| 20260507073004 | 10 | 305 | 1.6 | 3.2 | 0.00 | 0.00 | 0.00 | 77 | 1013.8 |
| 20260507072503 | 10 | 300 | 1.6 | 3.2 | 0.00 | 0.00 | 0.00 | 77 | 1013.7 |
| 20260507072003 | 10 | 317 | 0.0 | 3.2 | 0.00 | 0.00 | 0.00 | 76 | 1013.7 |
| 20260507071504 | 10 | 330 | 1.6 | 3.2 | 0.00 | 0.00 | 0.00 | 76 | 1013.9 |
| 20260507071004 | 10 | 306 | 1.6 | 3.2 | 0.00 | 0.00 | 0.00 | 76 | 1013.6 |
| 20260507070503 | 9 | 292 | 1.6 | 3.2 | 0.00 | 0.00 | 0.00 | 74 | 1013.5 |
| 20260507070005 | 9 | 281 | 1.6 | 3.2 | 0.00 | 0.00 | 0.00 | 75 | 1013.6 |
| 20260507065503 | 9 | 276 | 1.6 | 3.2 | 0.00 | 0.00 | 0.00 | 75 | 1013.5 |
| 20260507065003 | 9 | 320 | 0.0 | 4.8 | 0.00 | 0.00 | 0.00 | 77 | 1013.4 |
| 20260507064503 | 9 | 306 | 1.6 | 4.8 | 0.00 | 0.00 | 0.00 | 77 | 1013.7 |
| 20260507064003 | 9 | 299 | 1.6 | 4.8 | 0.00 | 0.00 | 0.00 | 75 | 1013.7 |
| 20260507063503 | 9 | 307 | 1.6 | 4.8 | 0.00 | 0.00 | 0.00 | 77 | 1013.5 |
| 20260507063003 | 9 | 308 | 1.6 | 4.8 | 0.00 | 0.00 | 0.00 | 78 | 1013.6 |
| 20260507062504 | 9 | 322 | 1.6 | 4.8 | 0.00 | 0.00 | 0.00 | 77 | 1013.7 |
| 20260507062003 | 9 | 339 | 1.6 | 3.2 | 0.00 | 0.00 | 0.00 | 78 | 1013.6 |
| 20260507061503 | 9 | 315 | 1.6 | 3.2 | 0.00 | 0.00 | 0.00 | 77 | 1013.7 |
| 20260507061218 | 9 | 309 | 1.6 | 3.2 | 0.00 | 0.00 | 0.00 | 77 | 1013.7 |
| 20260507060503 | 9 | 317 | 1.6 | 4.8 | 0.00 | 0.00 | 0.00 | 78 | 1013.6 |
| 20260507060003 | 9 | 304 | 1.6 | 4.8 | 0.00 | 0.00 | 0.00 | 79 | 1013.6 |
| 20260507055503 | 9 | 303 | 1.6 | 3.2 | 0.00 | 0.00 | 0.00 | 79 | 1013.6 |
| 20260507055003 | 9 | 304 | 1.6 | 3.2 | 0.00 | 0.00 | 0.00 | 77 | 1013.7 |
| 20260507054503 | 9 | 294 | 1.6 | 6.4 | 0.00 | 0.00 | 0.00 | 78 | 1013.5 |
| 20260507054003 | 8 | 301 | 1.6 | 6.4 | 0.00 | 0.00 | 0.00 | 78 | 1013.5 |
| 20260507053503 | 8 | 307 | 1.6 | 4.8 | 0.00 | 0.00 | 0.00 | 79 | 1013.5 |
| 20260507053003 | 8 | 304 | 1.6 | 4.8 | 0.00 | 0.00 | 0.00 | 79 | 1013.4 |
| 20260507052503 | 8 | 306 | 1.6 | 3.2 | 0.00 | 0.00 | 0.00 | 79 | 1013.5 |
| 20260507052003 | 8 | 306 | 1.6 | 3.2 | 0.00 | 0.00 | 0.00 | 80 | 1013.4 |
| 20260507051503 | 8 | 307 | 1.6 | 3.2 | 0.00 | 0.00 | 0.00 | 80 | 1013.3 |
| 20260507051217 | 8 | 310 | 1.6 | 3.2 | 0.00 | 0.00 | 0.00 | 80 | 1013.4 |
| 20260507050503 | 8 | 306 | 1.6 | 3.2 | 0.00 | 0.00 | 0.00 | 79 | 1013.4 |
| 20260507050004 | 8 | 307 | 1.6 | 3.2 | 0.00 | 0.00 | 0.00 | 79 | 1013.5 |
| 20260507045503 | 9 | 309 | 1.6 | 3.2 | 0.00 | 0.00 | 0.00 | 79 | 1013.3 |
| 20260507045003 | 9 | 311 | 1.6 | 3.2 | 0.00 | 0.00 | 0.00 | 79 | 1013.5 |
| 20260507044503 | 9 | 306 | 1.6 | 4.8 | 0.00 | 0.00 | 0.00 | 79 | 1013.5 |
| 20260507044003 | 9 | 307 | 1.6 | 4.8 | 0.00 | 0.00 | 0.00 | 78 | 1013.4 |
| 20260507043504 | 9 | 316 | 1.6 | 4.8 | 0.00 | 0.00 | 0.00 | 77 | 1013.3 |
| 20260507043217 | 9 | 314 | 1.6 | 4.8 | 0.00 | 0.00 | 0.00 | 77 | 1013.4 |
| 20260507042503 | 9 | 316 | 1.6 | 3.2 | 0.00 | 0.00 | 0.00 | 78 | 1013.4 |
| 20260507042003 | 9 | 318 | 1.6 | 4.8 | 0.00 | 0.00 | 0.00 | 78 | 1013.4 |
| 20260507041718 | 9 | 313 | 1.6 | 4.8 | 0.00 | 0.00 | 0.00 | 77 | 1013.4 |
| 20260507041003 | 9 | 323 | 1.6 | 4.8 | 0.00 | 0.00 | 0.00 | 78 | 1013.5 |
| 20260507040503 | 9 | 323 | 1.6 | 4.8 | 0.00 | 0.00 | 0.00 | 79 | 1013.3 |
| 20260507040003 | 9 | 315 | 1.6 | 4.8 | 0.00 | 0.00 | 0.00 | 79 | 1013.4 |
| 20260507035504 | 9 | 321 | 1.6 | 4.8 | 0.00 | 0.00 | 0.00 | 78 | 1013.2 |
| 20260507035003 | 8 | 320 | 1.6 | 3.2 | 0.00 | 0.00 | 0.00 | 79 | 1013.4 |
| 20260507034503 | 8 | 312 | 1.6 | 3.2 | 0.00 | 0.00 | 0.00 | 79 | 1013.4 |
| 20260507034003 | 8 | 312 | 1.6 | 3.2 | 0.00 | 0.00 | 0.00 | 79 | 1013.4 |
| 20260507033503 | 9 | 311 | 1.6 | 4.8 | 0.00 | 0.00 | 0.00 | 79 | 1013.4 |
| 20260507033219 | 9 | 310 | 1.6 | 4.8 | 0.00 | 0.00 | 0.00 | 79 | 1013.4 |
| 20260507032504 | 9 | 306 | 1.6 | 3.2 | 0.00 | 0.00 | 0.00 | 79 | 1013.3 |
| 20260507032003 | 9 | 304 | 1.6 | 3.2 | 0.00 | 0.00 | 0.00 | 79 | 1013.6 |
| 20260507031503 | 9 | 309 | 1.6 | 3.2 | 0.00 | 0.00 | 0.00 | 79 | 1013.1 |
| 20260507031003 | 9 | 311 | 1.6 | 3.2 | 0.00 | 0.00 | 0.00 | 79 | 1013.5 |
| 20260507030503 | 9 | 311 | 1.6 | 3.2 | 0.00 | 0.00 | 0.00 | 78 | 1013.3 |
| 20260507030003 | 9 | 311 | 1.6 | 3.2 | 0.00 | 0.00 | 0.00 | 78 | 1013.5 |
| 20260507025503 | 9 | 320 | 1.6 | 3.2 | 0.00 | 0.00 | 0.00 | 77 | 1013.4 |
| 20260507025003 | 9 | 342 | 0.0 | 3.2 | 0.00 | 0.00 | 0.00 | 76 | 1013.2 |
| 20260507024503 | 9 | 304 | 1.6 | 4.8 | 0.00 | 0.00 | 0.00 | 77 | 1013.5 |
| 20260507024003 | 9 | 296 | 1.6 | 4.8 | 0.00 | 0.00 | 0.00 | 76 | 1013.3 |
| 20260507023717 | 9 | 310 | 1.6 | 3.2 | 0.00 | 0.00 | 0.00 | 77 | 1013.5 |
| 20260507023004 | 9 | 288 | 1.6 | 6.4 | 0.00 | 0.00 | 0.00 | 76 | 1013.3 |
| 20260507022503 | 9 | 299 | 1.6 | 6.4 | 0.00 | 0.00 | 0.00 | 75 | 1013.4 |
| 20260507022003 | 9 | 322 | 1.6 | 3.2 | 0.00 | 0.00 | 0.00 | 76 | 1013.3 |
| 20260507021503 | 9 | 320 | 1.6 | 3.2 | 0.00 | 0.00 | 0.00 | 76 | 1013.3 |
| 20260507021218 | 9 | 320 | 1.6 | 3.2 | 0.00 | 0.00 | 0.00 | 76 | 1013.4 |
| 20260507020503 | 9 | 315 | 1.6 | 3.2 | 0.00 | 0.00 | 0.00 | 76 | 1013.3 |
| 20260507020218 | 9 | 306 | 1.6 | 3.2 | 0.00 | 0.00 | 0.00 | 76 | 1013.6 |
| 20260507015717 | 9 | 302 | 1.6 | 4.8 | 0.00 | 0.00 | 0.00 | 76 | 1013.5 |
| 20260507015004 | 9 | 310 | 1.6 | 4.8 | 0.00 | 0.00 | 0.00 | 77 | 1013.4 |
| 20260507014717 | 9 | 308 | 1.6 | 4.8 | 0.00 | 0.00 | 0.00 | 77 | 1013.5 |
| 20260507014003 | 8 | 313 | 1.6 | 3.2 | 0.00 | 0.00 | 0.00 | 81 | 1013.4 |
| 20260507013503 | 8 | 313 | 1.6 | 3.2 | 0.00 | 0.00 | 0.00 | 83 | 1013.4 |
| 20260507013003 | 8 | 317 | 0.0 | 3.2 | 0.00 | 0.00 | 0.00 | 84 | 1013.4 |
| 20260507012503 | 8 | 317 | 0.0 | 3.2 | 0.00 | 0.00 | 0.00 | 84 | 1013.5 |
| 20260507012003 | 8 | 318 | 0.0 | 1.6 | 0.00 | 0.00 | 0.00 | 84 | 1013.4 |
| 20260507011503 | 8 | 323 | 0.0 | 1.6 | 0.00 | 0.00 | 0.00 | 84 | 1013.6 |
| 20260507011003 | 8 | 323 | 0.0 | 1.6 | 0.00 | 0.00 | 0.00 | 84 | 1013.6 |
| 20260507010503 | 8 | 320 | 0.0 | 1.6 | 0.00 | 0.00 | 0.00 | 84 | 1013.6 |
| 20260507010003 | 8 | 322 | 0.0 | 3.2 | 0.00 | 0.00 | 0.00 | 85 | 1013.7 |
| 20260507005503 | 8 | 322 | 0.0 | 3.2 | 0.00 | 0.00 | 0.00 | 85 | 1013.5 |
| 20260507005003 | 8 | 314 | 0.0 | 3.2 | 0.00 | 0.00 | 0.00 | 86 | 1013.6 |
| 20260507004503 | 8 | 313 | 0.0 | 3.2 | 0.00 | 0.00 | 0.00 | 86 | 1013.5 |
| 20260507004003 | 8 | 345 | 0.0 | 3.2 | 0.00 | 0.00 | 0.00 | 86 | 1013.5 |
| 20260507003503 | 8 | 333 | 0.0 | 3.2 | 0.00 | 0.00 | 0.00 | 86 | 1013.7 |
| 20260507003003 | 8 | 323 | 0.0 | 3.2 | 0.00 | 0.00 | 0.00 | 87 | 1013.8 |
| 20260507002503 | 8 | 328 | 0.0 | 3.2 | 0.00 | 0.00 | 0.00 | 87 | 1013.7 |
| 20260507002003 | 8 | 321 | 0.0 | 1.6 | 0.00 | 0.00 | 0.00 | 88 | 1013.9 |
| 20260507001503 | 8 | 311 | 0.0 | 3.2 | 0.00 | 0.00 | 0.00 | 88 | 1013.7 |
| 20260507001003 | 8 | 299 | 0.0 | 3.2 | 0.00 | 0.00 | 0.00 | 88 | 1013.8 |
| 20260507000503 | 8 | 290 | 0.0 | 3.2 | 0.00 | 0.00 | 0.00 | 88 | 1014.1 |
| 20260507000003 | 8 | 319 | 0.0 | 1.6 | 0.00 | 0.00 | 0.00 | 88 | 1013.9 |
| 20260506235503 | 8 | 321 | 0.0 | 1.6 | 0.00 | 0.00 | 0.00 | 88 | 1014.1 |
| 20260506235004 | 8 | 321 | 0.0 | 1.6 | 0.00 | 0.00 | 0.00 | 88 | 1013.9 |
| 20260506234718 | 8 | 323 | 0.0 | 1.6 | 0.00 | 0.00 | 0.00 | 88 | 1013.9 |
| 20260506234003 | 8 | 332 | 0.0 | 1.6 | 0.00 | 0.00 | 0.00 | 88 | 1013.9 |
| 20260506233503 | 8 | 298 | 0.0 | 1.6 | 0.00 | 0.00 | 0.00 | 88 | 1013.7 |
| 20260506233217 | 8 | 296 | 0.0 | 1.6 | 0.00 | 0.00 | 0.00 | 87 | 1013.9 |
| 20260506232503 | 8 | 319 | 0.0 | 3.2 | 0.00 | 0.00 | 0.00 | 87 | 1013.7 |
| 20260506232003 | 8 | 335 | 0.0 | 3.2 | 0.00 | 0.00 | 0.00 | 87 | 1013.9 |
| 20260506231503 | 8 | 330 | 0.0 | 3.2 | 0.00 | 0.00 | 0.00 | 86 | 1013.8 |
| 20260506231003 | 8 | 313 | 0.0 | 3.2 | 0.00 | 0.00 | 0.00 | 86 | 1013.8 |
| 20260506230503 | 8 | 304 | 0.0 | 3.2 | 0.00 | 0.00 | 0.00 | 86 | 1013.9 |
| 20260506230217 | 8 | 283 | 0.0 | 3.2 | 0.00 | 0.00 | 0.00 | 85 | 1013.8 |
| 20260506225503 | 8 | 296 | 0.0 | 3.2 | 0.00 | 0.00 | 0.00 | 86 | 1013.9 |
| 20260506225217 | 8 | 336 | 0.0 | 1.6 | 0.00 | 0.00 | 0.00 | 86 | 1013.8 |
| 20260506224504 | 8 | 341 | 0.0 | 1.6 | 0.00 | 0.00 | 0.00 | 85 | 1013.9 |
| 20260506224003 | 8 | 324 | 0.0 | 1.6 | 0.00 | 0.00 | 0.00 | 85 | 1013.7 |
| 20260506223718 | 8 | 308 | 0.0 | 1.6 | 0.00 | 0.00 | 0.00 | 85 | 1013.6 |
| 20260506223003 | 8 | 326 | 0.0 | 1.6 | 0.00 | 0.00 | 0.00 | 84 | 1013.8 |